Weather Roundup
Issued by NWS

Home | Current Version | Previous Version | Graphics & Text | Print | Product List | Glossary Off
Versions: 1 2 3 4 5 6 7 8 9 10 11 12 13 14 15 16 17 18 19 20 21 22 23 24 25 26 27 28 29 30 31 32 33 34 35 36 37 38 39 40 41 42 43 44 45 46 47 48 49 50

000
NZUS93 KARX 261410
HRRWXR

CURRENT HOURLY OBSERVATIONS ACROSS
MUCH OF THE UPPER MISSISSIPPI VALLEY
NATIONAL WEATHER SERVICE LA CROSSE WI
900 AM CDT THU MAR 26 2015


...SOUTHEAST MINNESOTA...


CITY           SKY/WX    TMP DP  RH WIND       PRES   REMARKS
ROCHESTER      PTSUNNY   26  19  74 NW18      30.06R WCI  13
ROCHESTER/MAYO CLOUDY    27  21  79 W15       30.07R WCI  15
WINONA         CLOUDY    34  27  75 W7        30.06R WCI  28
AUSTIN         SUNNY     27  19  74 NW13      30.08R WCI  16
ALBERT LEA     SUNNY     28  21  74 NW14G21   30.09R WCI  17
DODGE CENTER   MOSUNNY   27  21  80 NW14      30.07R WCI  15
PRESTON        MOSUNNY   26  19  77 NW14      30.06S WCI  14
OWATONNA       SUNNY     27  19  74 NW18      30.10R WCI  13
FARIBAULT      MOSUNNY   27  19  74 NW12G20   30.11R WCI  16
$$

...ELSEWHERE IN MINNESOTA...


CITY           SKY/WX    TMP DP  RH WIND       PRES   REMARKS
MINNEAPOLIS    CLOUDY    29  20  69 NW10      30.10R WCI  20
INTNL FALLS    SUNNY     16   4  59 N13       30.17R WCI   2
DULUTH         FLURRIES  22  12  65 N20G29    30.04S WCI   7
RED WING       CLOUDY    30  19  64 NW9G16    30.08R WCI  22
REDWOOD FALLS  SUNNY     29  20  69 NW12      30.17R WCI  19
MANKATO        SUNNY     27  18  69 NW15      30.14R WCI  15
WORTHINGTON    CLOUDY    30  23  74 NW10      30.17S WCI  21
FAIRMONT       SUNNY     32  21  64 NW18      30.13R WCI  20
$$

...SOUTHWEST WISCONSIN...


CITY           SKY/WX    TMP DP  RH WIND       PRES   REMARKS
LA CROSSE      CLOUDY    34  22  61 NW15      30.03R WCI  24
PRAIRIE DU CHI SUNNY     31  19  62 W14       30.05S WCI  21
BOSCOBEL       CLOUDY    32  21  64 W6        30.04S WCI  26
LONE ROCK      CLOUDY    33  22  63 W12       30.02R WCI  24
PLATTEVILLE    SUNNY     31  24  73 W12       30.02S WCI  22
FORT MC COY    CLOUDY    33  20  59 NW14      30.02R WCI  23
CAMP DOUGLAS   CLOUDY    34  23  64 NW10      29.98R WCI  26
VIROQUA        CLOUDY    31  23  74 NW9       30.00R WCI  22
WIS DELLS      CLOUDY    33  20  59 NW13      29.98R WCI  23
$$

...ELSEWHERE IN WISCONSIN...


CITY           SKY/WX    TMP DP  RH WIND       PRES   REMARKS
MILWAUKEE      CLOUDY    37  20  50 NW10      29.96S WCI  30
MADISON        CLOUDY    35  21  56 NW9       29.98R WCI  28
GREEN BAY      CLOUDY    35  23  61 NW15      29.93R WCI  25
EAU CLAIRE     CLOUDY    31  19  61 N7        30.03R WCI  24
BLACK RVR FLS  CLOUDY    32  19  58 NW9       30.02R WCI  24
MEDFORD        LGT SNOW  26  20  76 N13G18    29.95R WCI  15
WAUSAU         CLOUDY    28  19  69 N12G21    29.93R WCI  18
WIS RAPIDS     CLOUDY    31  19  61 NW14      29.98R WCI  21
MARSHFIELD     CLOUDY    30  20  66 NW15G22   29.96R WCI  19
RICE LAKE      CLOUDY    30  18  60 NW12G17   30.05R WCI  20
$$

...NORTHEAST IOWA...


CITY           SKY/WX    TMP DP  RH WIND       PRES   REMARKS
DECORAH        SUNNY     28  19  69 NW9G16    30.05S WCI  20
MASON CITY     SUNNY     32  24  72 NW20      30.12R WCI  20
CHARLES CITY   SUNNY     30  25  80 NW15G22   30.09S WCI  19
OELWEIN        SUNNY     32  25  74 NW20      30.08R WCI  20
$$

...ELSEWHERE IN IOWA...


CITY           SKY/WX    TMP DP  RH WIND       PRES   REMARKS
DES MOINES     MOSUNNY   35  23  61 NW13      30.17R WCI  26
IOWA CITY      SUNNY     34  24  67 NW15      30.11S WCI  24
FORT DODGE     SUNNY     32  25  74 NW7       30.16R WCI  26
$$

...NORTHERN ILLINOIS...


CITY           SKY/WX    TMP DP  RH WIND       PRES   REMARKS
CHICAGO-OHARE  PTSUNNY   34  26  72 NW8       29.97S WCI  27
CHICAGO-MIDWAY CLOUDY    37  28  70 NW8       29.98S WCI  31
MOLINE         SUNNY     34  24  67 NW13      30.07S WCI  25
ROCKFORD       MOSUNNY   34  24  67 NW12      30.02S WCI  25
PEORIA         MOSUNNY   36  27  69 NW10G16   30.07R WCI  28
$$

NOTE: "FAIR" INDICATES FEW OR NO CLOUDS BELOW 12,000 FEET WITH NO
SIGNIFICANT WEATHER AND/OR OBSTRUCTIONS TO VISIBILITY. WIND
SPEEDS ARE IN MILES-PER-HOUR.



USA.gov is the U.S. government's official web portal to all federal, state and local government web resources and services.